SL-12 R/B(AUX MOTOR), 23402

Orbit data source: Space-Track

SL-12 R/B(AUX MOTOR), 23402 is space debris in HEO originally from a launch on Sun, 20 Nov 1994 UTC launched from the Tyuratam Missile And Space Complex (TTMTR). Debris objects in space refer to the collection of defunct objects orbiting the Earth. Examples of debris include non-operational satellites, rocket bodies, and fragments generated from explosions, collisions, or faulty payload assembly.

Loading next visibility...
Identifier
23402, 1994-076G
Orbit
HEO
Country
Flag of CISCIS
Related business
Manufacturer
RKKE
Mission
Spacecraft
Bus & Motor
SOZ, Unknown motor
Mass
Wet unknown, ~60 kg dry
Launch date (UTC)
1994-11-20 (32 years ago)
Launch vehicle
Unknown
Launch site
Tyuratam Missile And Space Complex (TTMTR)
Object type
Payload
Rocket body
Debris
Shape & HBR
Cyl, 0.6 m
Radar Cross Section
0.660 m², Medium (>0.1 m² and < 1m²)

Expand to show TLE details & history
Last TLE update: 3 days ago

TLE from 3 days ago
0 SL-12 R/B(AUX MOTOR)
1 23402U 94076G   26170.60011340 -.00000033  00000-0  29884-3 0  9999
2 23402  65.3977 299.1322 5609962 119.5141 307.5295  4.27498333489844
Epoch: 2026-06-19T14:24Z
TLE epoch observation values (Epoch: 2026-06-19T14:24:09.797Z)
Latitude
-0.00004°
Longitude
175.24246°
Altitude
8,796.414 km
Speed
5.262 km/s
True Right ascension
19h 56m 26s
True Declination
0° 00' 00"
Sunlit
Object was in daylight at epoch
Visualization orbit readout
Latitude
Unknown
Longitude
Unknown
Altitude
Unknown
Speed
Unknown
Apparent Right ascension
Unknown
Apparent Declination
Unknown
Sunlit
N/A
Visualization observer readout
Local Sidereal Time
23:08:06
Azimuth
Unknown
Elevation
Unknown
Doppler factor
Unknown
Orbital elements
Apogee altitude
18,653.132 km
Perigee altitude
661.484 km
Semi-major axis
16,035.445 km
Eccentricity
0.561
Inclination
65.3977°
RAAN
299.1322°
Arg. of periapsis
119.5141°
True anomaly
240.58751°
Mean anomaly
307.5295°
Eccentric anomaly
275.53675°
Mean motion
1.06886 °/min
Orbital period
336.81 mins
BSTAR
0.00029884
Loading maneuver chart data...
Computing Atmospheric mass density...
Loading historical data...
Loading historical data...
Loading historical data...
Loading historical data...
Loading historical data...
Loading historical data...
Loading historical data...

Documentation

Showing up to 5 results
|